www.pogodaiklimat.ru

Погода и климат >> Архив погоды >> Канада >> Medicine Hat Arpt


ПОГОДА в Medicine Hat Arpt

  • Прогноз погоды в Medicine Hat Arpt
  • Монитор погоды в Medicine Hat Arpt
  • Климат города

АРХИВ ПОГОДЫ в Medicine Hat Arpt

Время (UTC), дата Ветер
(напр.,м/с)
 
Видим.   Явления Облачность Т
(С)
Тd
(С)
f
(%)
Тe
(С)
Тes
(С)
Комфортность P
(гПа)
Po
(гПа)
Тmin
(С)
Tmax
(С)
R
(мм)
R24
(мм)
S
(см)
18 19.06 н/о н/о +1.6 -3.4 69 1013.9 1004.5 -2.1 +3.0
00 20.06 З 7 н/о н/о +0.6 -2.9 77 -6 -6 1014.0 1004.6 -2.1 +3.0
03 20.06 З 5 н/о н/о +0.5 -1.7 85 -5 -5 1014.1 1004.8
06 20.06 З 7 н/о н/о 0.0 -1.4 90 -7 -7 1014.1 1004.7 -2.1 +3.0
09 20.06 З 9 н/о н/о +0.3 -0.9 92 -8 -8 1014.0 1004.6
12 20.06 СЗ 4 н/о н/о +1.2 -1.1 85 -4 -4 1014.7 1005.3 -0.4 +3.0
15 20.06 З 8 н/о н/о +2.4 -0.7 80 -4 -4 1014.5 1005.2
18 20.06 СВ 1 н/о н/о +4.2 -1.6 66 +3 +3 1014.8 1005.5 -0.4 +4.2
21 20.06 С 1 н/о н/о +5.0 -2.7 57 +4 +4 1014.8 1005.5
00 21.06 З 8 н/о н/о +3.4 -2.6 65 -3 -3 1014.8 1005.5 -0.0 +6.6
03 21.06 З 7 н/о н/о +2.8 -2.5 68 -3 -3 1015.2 1005.9
06 21.06 З 7 н/о н/о +2.5 -1.5 75 -4 -4 1015.0 1005.7 -0.0 +6.6 10
09 21.06 С 4 н/о н/о -0.2 -0.3 99 -6 -6 1015.5 1006.2
12 21.06 С 3 н/о н/о -0.1 -0.9 94 -5 -5 1015.7 1006.3 -0.5 +6.6
15 21.06 С 4 н/о н/о +0.3 -0.6 94 -5 -5 1015.9 1006.5
18 21.06 н/о н/о +1.8 -1.9 76 1015.7 1006.4 -0.5 +2.5
21 21.06 С 4 н/о н/о +0.9 -1.3 85 -4 -4 1015.7 1006.3
00 22.06 С 4 н/о н/о +0.1 -1.0 92 -5 -5 1015.7 1006.3 -0.5 +2.0
03 22.06 СЗ 3 н/о н/о +2.2 -0.7 81 -2 -2 1015.4 1006.0
06 22.06 С 5 н/о н/о +0.5 -1.4 87 -5 -5 1015.2 1005.8 -0.5 +3.0
09 22.06 С 4 н/о н/о -0.1 -1.7 89 -6 -6 1014.8 1005.4
12 22.06 С 5 н/о н/о +0.2 -1.5 88 -6 -6 1014.8 1005.4 -0.7 +3.0
15 22.06 С 5 н/о н/о +1.4 -1.5 81 -4 -4 1014.1 1004.8
18 22.06 С 5 н/о н/о +2.5 -2.0 72 -3 -3 1013.2 1003.9 -0.7 +2.5
21 22.06 С 2 н/о н/о +3.4 -3.3 61 +1 +1 1012.3 1003.0
00 23.06 С 1 н/о н/о +6.3 -3.2 51 +7 +7 1011.7 1002.4 -0.7 +6.3
03 23.06 ЮЗ 2 н/о н/о +3.9 -1.9 66 +2 +2 1010.6 1001.3
06 23.06 Ю 4 н/о н/о +4.5 -0.9 68 +1 +1 1009.2 999.9 -0.7 +6.8
09 23.06 С 3 н/о н/о +1.4 -1.9 79 -3 -3 1008.5 999.2
12 23.06 С 3 н/о н/о +3.1 -1.8 70 -0 -0 1007.9 998.7 +1.0 +6.8
15 23.06 СВ 1 н/о н/о +3.0 -1.6 72 +2 +2 1007.2 998.0
18 23.06 н/о н/о +2.9 -2.8 66 1006.5 997.3 +1.0 +6.1
21 23.06 С 1 н/о н/о +3.7 -2.4 64 +3 +3 1006.1 996.9
00 24.06 Ю 1 н/о н/о +4.3 -1.2 67 +4 +4 1005.9 996.7 +1.3 +7.0
03 24.06 З 6 н/о н/о +2.1 -0.3 84 -4 -4 1005.3 996.1
06 24.06 З 14 н/о н/о +0.8 -0.3 92 -8 -8 1005.1 995.8 +0.8 +7.0 6
09 24.06 З 9 н/о н/о +1.1 -0.6 88 -6 -6 1006.2 996.9
12 24.06 З 6 н/о н/о +2.3 -1.2 78 -4 -4 1007.1 997.9 +0.8 +7.0
15 24.06 З 6 н/о н/о +2.1 -1.1 79 -4 -4 1007.1 997.8
18 24.06 Ю 4 н/о н/о +2.6 -1.2 76 -2 -2 1006.5 997.2 +0.8 +3.1
21 24.06 Ю 5 н/о н/о +0.9 -0.8 88 -5 -5 1006.1 996.8
00 25.06 Ю 7 н/о н/о +1.6 +0.1 90 -5 -5 1004.7 995.5 +0.7 +3.1
03 25.06 Ю 8 н/о н/о +0.7 0.0 95 -7 -7 1003.3 994.1
06 25.06 Ю 10 н/о н/о +0.5 0.0 96 -8 -8 1002.3 993.1 +0.4 +3.1 7
09 25.06 Ю 10 н/о н/о +0.6 0.0 96 -8 -8 1001.6 992.4
12 25.06 Ю 10 н/о н/о +0.6 +0.1 96 -8 -8 1001.4 992.2 +0.4 +3.1
15 25.06 Ю 13 н/о н/о +0.8 +0.2 96 -8 -8 1000.3 991.1
18 25.06 Ю 11 н/о н/о +1.0 +0.2 94 -7 -7 999.3 990.1 +0.4 +1.0
21 25.06 Ю 10 н/о н/о +1.4 +0.5 94 -6 -6 997.4 988.2
00 26.06 ЮЗ 6 н/о н/о +3.5 +1.5 87 -2 -2 996.5 987.3 +0.4 +3.6
03 26.06 З 17 н/о н/о +1.3 -0.5 88 -8 -8 998.0 988.8
06 26.06 З 12 н/о н/о +0.7 -0.3 93 -8 -8 1001.6 992.4 +0.4 +3.6 5
09 26.06 З 10 н/о н/о +0.5 -1.2 88 -8 -8 1004.4 995.1
12 26.06 З 9 н/о н/о +0.1 -1.4 90 -8 -8 1005.5 996.2 -0.1 +3.6
15 26.06 З 12 н/о н/о +1.4 -1.3 82 -7 -7 1005.1 995.8

 

Местоположение метеостанции Medicine Hat Arpt (Канада): широта 50.02 долгота -110.70 высота над уровнем моря 716 м.

В архиве по умолчанию представлена погода в Medicine Hat Arpt за последнюю неделю. Архивные данные за месяц целиком и за предыдущие месяцы, начиная с января 2011 года, Вы можете получить, выбрав интересующий диапазон дат из раскрывающегося списка и нажав кнопку "Ввод!".

Внимание! Время в таблицах - всемирное. Для получения местного времени необходимо прибавить поправку, которая в Medicine Hat Arpt равна -7 ч.

Смотрите также архив погоды в соседних городах и на ближайших метеорологических станциях:

Погода в Seven Persons Agdm (Канада) (18 км)
Погода в Irvine Agcm (Канада) (32 км)
Погода в Bow Island Agdm (Канада) (46 км)
Погода в Schuler Radar (Канада) (48 км)
Погода в Schuler Agdm (Канада) (59 км)
Погода в Bow Island (Канада) (60 км)
Погода в Grassy Lake (Канада) (73 км)
Погода в Foremost Agdm (Канада) (79 км)
Погода в Etzicom Agcm (Канада) (81 км)
Погода в Atlee (Канада) (89 км)

Пояснения к столбцам:

Ветер - указаны скорость ветра в м/с - средняя за 10 мин, порывы в срок и между сроками (в фигурных скобках) и направление, откуда дует ветер: С - северный, СВ - северо-восточный, В - восточный, ЮВ - юго-восточный, Ю - южный, ЮЗ - юго-западный, З - западный, СЗ - северо-западный.
Видимость - горизонтальная дальность видимости в метрах или километрах. При видимости от 1 до 10 км при отсутствии осадков обычно наблюдается дымка, при ухудшении видимости до 1 км и менее - туман. В сухую погоду видимость может ухудшаться дымом, пылью или мглою.
Явления - указаны атмосферные явления, наблюдавшиеся в срок или в последний час перед сроком; фигурными скобками обозначены явления, наблюдавшиеся между сроками (за 1-3 часа до срока); квадратными скобками обозначены град или гололедные отложения с указанием их диаметра в мм.
Облачность - указаны через наклонную черту общая и нижняя облачность в баллах и высота нижней границы облаков в метрах; квадратными скобками обозначены формы облаков: Ci - перистые, Cs - перисто-слоистые, Cc - перисто-кучевые, Ac - высококучевые, As - высокослоистые, Sc - слоисто-кучевые, Ns - слоисто-дождевые, Cu - кучевые, Cb - кучево-дождевые. Подробнее классификацию облаков см. в Атласе облаков (PDF).
T - Температура воздуха - температура, измеренная на высоте 2 м над землей.
Td - Температура точки росы - температура, при понижении до которой содержащийся в воздухе водяной пар достигнет насыщения.
f - Относительная влажность воздуха - влажноcть воздуха, измеренная на высоте 2 м над землей.
Te - Эффективная температура - температура, которую ощущает одетый по сезону человек в тени. Характеристика душности погоды. При расчете учитывается влияние влажности воздуха и скорости ветра на теплоощущения человека.
Tes - Эффективная температура на солнце - температура, которую ощущает человек, с поправкой на солнечный нагрев. Характеристика знойности погоды. Зависит от высоты солнца над горизонтом, облачности и скорости ветра. Ночью, в пасмурную погоду, а также при ветре 12 м/с и более поправка равна нулю.
P - Атмосферное давление - приведенное к уровню моря атмосферное давление.
Po - Атмосферное давление - измеренное на уровне метеостанции атмосферное давление.
Tmin - Минимальная температура - минимум температуры воздуха на высоте 2 м над землей.
Tmax - Максимальная температура - максимум температуры воздуха на высоте 2 м над землей.
R - Количество осадков - Количество выпавших осадков за период времени, мм. При наведении курсора мыши на число - период времени, за который выпало указанное количество осадков.
R24 - Количество осадков - Количество выпавших осадков за 24 часа, мм.
S - Снежный покров - Высота снежного покрова, см. При наведении курсора мыши на число - состояние снежного покрова и степень покрытия местности в баллах.